"2009-05-06 00:00:00",861439,9.38,335,1.278,0.222,14.94,106.7184,16.47,17.57,28.15,0,110.7,13.25,17.28,297.0
"2009-05-06 00:00:30",861440,9.39,337.3,1.777,0.493,14.95,106.7184,16.47,17.55,27.96,0,110.7,13.25,17.28,299.3
"2009-05-06 00:01:00",861441,8.9,329.4,4.361,0.607,14.99,106.7184,16.47,17.55,28,0,110.7,13.25,17.28,291.4
"2009-05-06 00:01:30",861442,9.41,326.1,1.886,0.493,15.01,106.7184,16.47,17.54,27.81,0,110.7,13.24,17.28,288.1
"2009-05-06 00:02:00",861443,8.88,324.2,3.479,0.545,15.07,106.7184,16.47,17.54,27.61,0,110.7,13.24,17.28,286.2
"2009-05-06 00:02:30",861444,8.53,331,4.847,0.555,15,106.7181,16.47,17.53,27.73,0,110.7,13.24,17.28,293.0
"2009-05-06 00:03:00",861445,7.219,333.4,4.999,1.056,14.94,106.7165,16.47,17.51,27.97,0,110.7,13.24,17.28,295.4
"2009-05-06 00:03:30",861446,9.62,341.7,3.634,1.058,14.9,106.7055,16.44,17.51,28.08,0,110.7,13.24,17.25,303.7
"2009-05-06 00:04:00",861447,10.62,337.5,1.44,0.648,14.91,106.6959,16.42,17.51,28.53,0,110.7,13.24,17.23,299.5
"2009-05-06 00:04:30",861448,10.84,338.2,1.458,0.27,14.95,106.688,16.4,17.51,28.65,0,110.7,13.24,17.20,300.2
"2009-05-06 00:05:00",861449,10.91,339.8,1.752,0.268,14.97,106.6849,16.39,17.49,28.96,0,110.7,13.24,17.20,301.8
"2009-05-06 00:05:30",861450,11,341.3,1.391,0.229,14.92,106.6847,16.39,17.48,29.18,0,110.7,13.24,17.20,303.3
"2009-05-06 00:06:00",861451,11.35,341.1,1.98,0.28,14.99,106.685,16.39,17.48,29.17,0,110.7,13.24,17.20,303.1
"2009-05-06 00:06:30",861452,10.89,333.7,8.15,1.396,15.13,106.6847,16.39,17.48,28.68,0,110.7,13.24,17.20,295.7
"2009-05-06 00:07:00",861453,7.349,319,5.175,0.699,15.19,106.685,16.39,17.45,27.98,0,110.7,13.24,17.20,281.0
"2009-05-06 00:07:30",861454,9.2,331.7,5.508,0.647,15.06,106.6805,16.38,17.44,28.11,0,110.7,13.25,17.19,293.7
"2009-05-06 00:08:00",861455,9.54,335.9,1.317,0.163,15.35,106.6675,16.34,17.43,28.28,0,110.7,13.25,17.15,297.9
"2009-05-06 00:08:30",861456,8.62,329,5.904,0.408,15.64,106.6515,16.3,17.42,27.84,0,110.7,13.25,17.11,291.0
"2009-05-06 00:09:00",861457,8.9,331.4,5.817,0.511,15.66,106.6542,16.31,17.4,27.79,0,110.7,13.25,17.12,293.4
"2009-05-06 00:09:30",861458,9.18,336,1.567,0.385,15.51,106.653,16.31,17.38,28.44,0,110.7,13.25,17.11,298.0
"2009-05-06 00:10:00",861459,9.86,333,3.302,0.393,15.69,106.6503,16.3,17.37,28.55,0,110.7,13.25,17.11,295.0
"2009-05-06 00:10:30",861460,9.56,330.4,1.45,0.366,15.71,106.629,16.24,17.36,28.37,0,110.7,13.25,17.05,292.4
"2009-05-06 00:11:00",861461,9.54,334.7,1.678,0.222,15.71,106.6306,16.25,17.34,28.4,0,110.7,13.25,17.06,296.7
"2009-05-06 00:11:30",861462,8.77,334.1,2.237,0.235,15.77,106.628,16.24,17.33,28.4,0,110.7,13.25,17.05,296.1
"2009-05-06 00:12:00",861463,8.44,328.9,5.696,0.506,15.89,106.6179,16.22,17.29,28.15,0,110.7,13.25,17.02,290.9
"2009-05-06 00:12:30",861464,7.549,334.9,2.902,0.415,15.94,106.6001,16.17,17.28,27.97,0,110.7,13.25,16.98,296.9
"2009-05-06 00:13:00",861465,7.89,329,5.877,0.785,15.92,106.6032,16.18,17.26,27.81,0,110.7,13.25,16.99,291.0
"2009-05-06 00:13:30",861466,9.6,334,2.479,0.391,15.76,106.6044,16.18,17.24,28.11,0,110.7,13.25,16.99,296.0
"2009-05-06 00:14:00",861467,9.85,331,1.406,0.286,15.83,106.5907,16.15,17.23,28.18,0,110.7,13.25,16.95,293.0
"2009-05-06 00:14:30",861468,10.03,336,1.809,0.24,15.36,106.5847,16.13,17.22,28.54,0,110.7,13.25,16.94,298.0
"2009-05-06 00:15:00",861469,10.02,336.5,1.915,0.273,15.18,106.5853,16.13,17.2,29.14,0,110.7,13.25,16.94,298.5
"2009-05-06 00:15:30",861470,9.82,338,1.626,0.368,15.08,106.5853,16.13,17.18,29.7,0,110.7,13.26,16.94,300.0
"2009-05-06 00:16:00",861471,9.35,335.3,1.9,0.199,14.99,106.5766,16.11,17.16,29.82,0,110.7,13.26,16.92,297.3
"2009-05-06 00:16:30",861472,9.05,334.4,1.173,0.406,14.94,106.5693,16.09,17.16,29.71,0,110.7,13.26,16.90,296.4
"2009-05-06 00:17:00",861473,8.56,330.2,3.408,0.724,15.01,106.5538,16.05,17.14,29.56,0,110.7,13.26,16.86,292.2
"2009-05-06 00:17:30",861474,8.95,324.3,2.688,0.528,15.12,106.5518,16.05,17.12,29.2,0,110.7,13.26,16.85,286.3
"2009-05-06 00:18:00",861475,8.91,323.4,1.842,0.277,15.18,106.5518,16.05,17.1,28.8,0,110.6,13.26,16.85,285.4
"2009-05-06 00:18:30",861476,8.08,327.2,1.814,0.232,15.22,106.5518,16.05,17.12,28.58,0,110.6,13.25,16.85,289.2
"2009-05-06 00:19:00",861477,8.01,326.6,2.986,0.199,15.2,106.5518,16.05,17.1,28.39,0,110.6,13.25,16.85,288.6
"2009-05-06 00:19:30",861478,7.08,319.9,1.967,0.543,15.15,106.5518,16.05,17.1,28.4,0,110.6,13.25,16.85,281.9
"2009-05-06 00:20:00",861479,7.054,320.8,3.428,0.311,15.23,106.5518,16.05,17.11,28.25,0,110.6,13.25,16.85,282.8
"2009-05-06 00:20:30",861480,6.089,312.7,2.255,0.459,15.17,106.5518,16.05,17.09,28.13,0,110.6,13.25,16.85,274.7
"2009-05-06 00:21:00",861481,5.24,307.7,2.951,0.492,15.21,106.5518,16.05,17.09,28.09,0,110.6,13.25,16.85,269.7
"2009-05-06 00:21:30",861482,4.161,314.4,4.994,0.213,15.16,106.56,16.07,17.1,27.92,0,110.6,13.25,16.88,276.4
"2009-05-06 00:22:00",861483,4.753,326.1,6.651,0.44,15.16,106.5749,16.11,17.1,27.86,0,110.6,13.26,16.91,288.1
"2009-05-06 00:22:30",861484,4.891,332.5,3.695,0.797,14.87,106.5814,16.12,17.1,28.06,0,110.6,13.26,16.93,294.5
"2009-05-06 00:23:00",861485,6.074,328.3,2.601,0.219,14.75,106.5856,16.13,17.13,28.83,0,110.6,13.26,16.94,290.3
"2009-05-06 00:23:30",861486,6.057,330.6,2.797,0.293,14.84,106.5856,16.13,17.14,28.83,0,110.6,13.26,16.94,292.6
"2009-05-06 00:24:00",861487,5.851,324.6,4.106,0.401,15.06,106.591,16.15,17.15,28.43,0,110.6,13.26,16.96,286.6
"2009-05-06 00:24:30",861488,4.348,320.5,4.975,0.464,15.08,106.6112,16.2,17.16,27.99,0,110.6,13.26,17.01,282.5
"2009-05-06 00:25:00",861489,4.28,317,3.071,0.429,15.19,106.6194,16.22,17.18,27.53,0,110.6,13.26,17.03,279.0
"2009-05-06 00:25:30",861490,3.818,312.5,2.467,0.425,15.31,106.6194,16.22,17.2,27.09,0,110.6,13.26,17.03,274.5
"2009-05-06 00:26:00",861491,3.31,312,2.089,0.257,14.99,106.6292,16.24,17.22,27.3,0,110.6,13.26,17.05,274.0
"2009-05-06 00:26:30",861492,4.734,312.8,4.946,0.697,14.73,106.6481,16.29,17.21,27.78,0,110.6,13.26,17.10,274.8
"2009-05-06 00:27:00",861493,5.591,322.7,2.925,0.691,14.54,106.6532,16.31,17.25,28.92,0,110.6,13.26,17.12,284.7
"2009-05-06 00:27:30",861494,6.636,326.6,3.343,0.25,14.57,106.6532,16.31,17.26,29.66,0,110.6,13.26,17.12,288.6
"2009-05-06 00:28:00",861495,6.392,327.3,3.066,0.278,14.78,106.6585,16.32,17.28,29.89,0,110.6,13.26,17.13,289.3
"2009-05-06 00:28:30",861496,6.45,327.3,3.027,0.283,14.81,106.6788,16.37,17.3,29.36,0,110.6,13.26,17.18,289.3
"2009-05-06 00:29:00",861497,6.5,331.3,7.025,0.48,14.74,106.6866,16.39,17.32,29.88,0,110.6,13.26,17.20,293.3
"2009-05-06 00:29:30",861498,5.577,333,6.156,0.55,14.72,106.6869,16.39,17.34,30.65,0,110.6,13.26,17.20,295.0
"2009-05-06 00:30:00",861499,6.154,332.5,2.761,0.281,14.71,106.6869,16.39,17.36,30.39,0,110.6,13.26,17.20,294.5
"2009-05-06 00:30:30",861500,5.942,331.5,2.047,0.325,14.77,106.6872,16.39,17.38,29.84,0,110.6,13.26,17.20,293.5
"2009-05-06 00:31:00",861501,5.921,327.8,2.423,0.212,14.81,106.7013,16.43,17.39,29.63,0,110.6,13.26,17.24,289.8
"2009-05-06 00:31:30",861502,6.334,326.5,3.797,0.366,14.9,106.7125,16.46,17.41,28.97,0,110.6,13.26,17.27,288.5
"2009-05-06 00:32:00",861503,6.566,326,1.487,0.174,14.92,106.717,16.47,17.41,28.76,0,110.6,13.26,17.28,288.0
"2009-05-06 00:32:30",861504,6.147,329,3.299,0.454,14.91,106.7201,16.48,17.42,28.44,0,110.6,13.26,17.29,291.0
"2009-05-06 00:33:00",861505,5.372,338.3,4.043,0.264,14.76,106.7207,16.48,17.44,29.27,0,110.6,13.26,17.29,300.3
"2009-05-06 00:33:30",861506,5.364,341,3.595,0.269,14.76,106.7207,16.48,17.45,29.45,0,110.7,13.26,17.29,303.0
"2009-05-06 00:34:00",861507,5.237,341.7,3.502,0.207,14.71,106.7207,16.48,17.46,29.71,0,110.7,13.26,17.29,303.7
"2009-05-06 00:34:30",861508,6.206,336.2,4.561,0.541,15.02,106.7207,16.48,17.48,29.24,0,110.6,13.26,17.29,298.2
"2009-05-06 00:35:00",861509,5.772,348.6,8.87,1.461,15.12,106.7207,16.48,17.47,28.99,0,110.7,13.26,17.29,310.6
"2009-05-06 00:35:30",861510,7.939,340.5,3.696,0.429,15.47,106.7207,16.48,17.48,27.45,0,110.7,13.26,17.29,302.5
"2009-05-06 00:36:00",861511,7.886,333.4,4.877,0.426,15.38,106.7207,16.48,17.48,26.4,0,110.7,13.25,17.29,295.4
"2009-05-06 00:36:30",861512,8.32,328.2,5.047,0.563,15.36,106.7213,16.48,17.49,26.31,0,110.7,13.25,17.29,290.2
"2009-05-06 00:37:00",861513,7.265,320.4,4.396,0.595,15.39,106.7331,16.51,17.5,26.08,0,110.7,13.25,17.32,282.4
"2009-05-06 00:37:30",861514,6.658,323.1,5.468,0.319,15.32,106.7455,16.54,17.51,26.12,0,110.7,13.25,17.35,285.1
"2009-05-06 00:38:00",861515,7.097,322.6,5.126,0.808,15.26,106.7536,16.56,17.52,26.25,0,110.7,13.25,17.37,284.6
"2009-05-06 00:38:30",861516,5.489,330.1,8.27,0.531,15.15,106.7353,16.52,17.5,27.45,0,110.7,13.25,17.33,292.1
"2009-05-06 00:39:00",861517,4.582,344.4,6.389,0.667,15.21,106.7201,16.48,17.46,28.39,0,110.7,13.25,17.29,306.4
"2009-05-06 00:39:30",861518,2.832,351.2,14.22,1.112,15.1,106.7016,16.43,17.43,29.51,0,110.7,13.25,17.24,313.2
"2009-05-06 00:40:00",861519,6.206,327.3,4.478,0.62,15.01,106.7111,16.45,17.4,28.46,0,110.7,13.25,17.26,289.3
"2009-05-06 00:40:30",861520,5.819,332.2,4.074,0.55,15.09,106.7199,16.48,17.4,27.44,0,110.7,13.25,17.29,294.2
"2009-05-06 00:41:00",861521,5.066,337.4,4.385,0.346,15.05,106.7207,16.48,17.43,27.22,0,110.7,13.26,17.29,299.4
"2009-05-06 00:41:30",861522,5.487,340.2,1.431,0.178,14.92,106.7207,16.48,17.44,27.45,0,110.7,13.26,17.29,302.2
"2009-05-06 00:42:00",861523,6.681,340.1,2.43,0.516,14.64,106.7266,16.49,17.46,28.67,0,110.7,13.26,17.30,302.1
"2009-05-06 00:42:30",861524,7.032,341.2,1.939,0.285,14.75,106.7472,16.55,17.47,29.53,0,110.7,13.26,17.36,303.2
"2009-05-06 00:43:00",861525,6.618,340.5,2.079,0.281,14.85,106.7545,16.57,17.49,29.48,0,110.7,13.26,17.38,302.5
"2009-05-06 00:43:30",861526,6.563,336.4,1.902,0.208,14.79,106.7545,16.57,17.49,29.46,0,110.7,13.26,17.38,298.4
"2009-05-06 00:44:00",861527,6.986,333.7,1.684,0.223,14.7,106.7545,16.57,17.52,29.81,0,110.7,13.26,17.38,295.7
"2009-05-06 00:44:30",861528,6.634,335.4,1.626,0.169,14.68,106.755,16.57,17.56,30.25,0,110.7,13.26,17.38,297.4
"2009-05-06 00:45:00",861529,6.685,332.2,2.55,0.35,14.81,106.7618,16.58,17.56,29.87,0,110.7,13.26,17.39,294.2
"2009-05-06 00:45:30",861530,6.569,330,2.181,0.262,15.03,106.7761,16.62,17.58,29.13,0,110.7,13.26,17.43,292.0
"2009-05-06 00:46:00",861531,6.384,330,2.698,0.163,14.95,106.7826,16.64,17.58,28.94,0,110.7,13.26,17.45,292.0
"2009-05-06 00:46:30",861532,6.429,332.8,1.308,0.172,14.76,106.7854,16.65,17.58,29.58,0,110.7,13.26,17.46,294.8
"2009-05-06 00:47:00",861533,6.407,335.1,2.125,0.275,14.72,106.7868,16.65,17.6,29.87,0,110.7,13.26,17.46,297.1
"2009-05-06 00:47:30",861534,6.681,330.4,1.528,0.183,14.91,106.7832,16.64,17.61,29.42,0,110.7,13.26,17.45,292.4
"2009-05-06 00:48:00",861535,6.837,325.2,2.007,0.303,15.23,106.7714,16.61,17.61,28.49,0,110.7,13.26,17.42,287.2
"2009-05-06 00:48:30",861536,7.367,315.7,4.128,0.301,15.39,106.759,16.58,17.59,27.01,0,110.7,13.26,17.39,277.7
"2009-05-06 00:49:00",861537,6.365,314.4,5.067,0.297,15.41,106.755,16.57,17.6,26.7,0,110.7,13.26,17.38,276.4
"2009-05-06 00:49:30",861538,6.659,313.5,3.83,0.263,15.32,106.7545,16.57,17.59,26.78,0,110.7,13.26,17.38,275.5
"2009-05-06 00:50:00",861539,6.165,310.7,2.641,0.187,15.45,106.7545,16.57,17.59,26.73,0,110.7,13.26,17.38,272.7
"2009-05-06 00:50:30",861540,6.018,313.9,1.584,0.21,15.47,106.7545,16.57,17.59,26.72,0,110.7,13.26,17.38,275.9
"2009-05-06 00:51:00",861541,6.097,310.3,1.378,0.235,15.46,106.7545,16.57,17.58,26.78,0,110.7,13.26,17.38,272.3
"2009-05-06 00:51:30",861542,6.197,314.8,2.54,0.255,15.44,106.7545,16.57,17.6,26.9,0,110.7,13.26,17.38,276.8
"2009-05-06 00:52:00",861543,5.603,316,4.872,0.189,15.52,106.7545,16.57,17.58,26.87,0,110.7,13.26,17.38,278.0
"2009-05-06 00:52:30",861544,5.797,307.6,1.294,0.267,15.73,106.7545,16.57,17.58,26.73,0,110.7,13.25,17.38,269.6
"2009-05-06 00:53:00",861545,5.31,308.2,1.94,0.177,15.73,106.7545,16.57,17.58,26.73,0,110.7,13.25,17.38,270.2
"2009-05-06 00:53:30",861546,5.909,308.3,1.673,0.419,15.73,106.7545,16.57,17.59,26.82,0,110.7,13.25,17.38,270.3
"2009-05-06 00:54:00",861547,6.446,306.1,1.407,0.079,15.77,106.7545,16.57,17.58,26.86,0,110.7,13.25,17.38,268.1
"2009-05-06 00:54:30",861548,6.303,306.1,2.236,0.248,15.9,106.7545,16.57,17.59,26.84,0,110.7,13.25,17.38,268.1
"2009-05-06 00:55:00",861549,6.118,306.7,2.296,0.179,15.94,106.7505,16.56,17.59,26.85,0,110.7,13.25,17.37,268.7
"2009-05-06 00:55:30",861550,6.047,308.7,2.134,0.174,15.93,106.7373,16.52,17.57,26.8,0,110.7,13.25,17.33,270.7
"2009-05-06 00:56:00",861551,5.86,310.9,2.836,0.278,15.97,106.7261,16.49,17.56,26.78,0,110.7,13.25,17.30,272.9
"2009-05-06 00:56:30",861552,6.075,306.9,2.22,0.121,15.95,106.721,16.48,17.55,26.79,0,110.7,13.25,17.29,268.9
"2009-05-06 00:57:00",861553,6.028,311.2,1.158,0.14,15.95,106.7207,16.48,17.55,26.92,0,110.7,13.25,17.29,273.2
"2009-05-06 00:57:30",861554,5.976,313,1.577,0.239,15.96,106.7207,16.48,17.53,27.07,0,110.7,13.26,17.29,275.0
"2009-05-06 00:58:00",861555,5.92,309.7,4.306,0.295,15.99,106.7179,16.47,17.53,27.02,0,110.7,13.26,17.28,271.7
"2009-05-06 00:58:30",861556,5.945,309.2,3.126,0.206,16,106.7007,16.43,17.52,27.06,0,110.7,13.26,17.24,271.2
"2009-05-06 00:59:00",861557,4.99,307.9,3.551,0.242,15.99,106.6872,16.39,17.49,27.06,0,110.7,13.26,17.20,269.9
"2009-05-06 00:59:30",861558,4.651,306.4,4.618,0.259,15.98,106.6869,16.39,17.5,27.03,0,110.7,13.26,17.20,268.4
"2009-05-06 01:00:00",861559,4.39,315.2,5.632,0.419,15.96,106.6869,16.39,17.49,27.07,0,110.7,13.26,17.20,277.2
"2009-05-06 01:00:30",861560,5.443,309.2,3.338,0.137,15.94,106.6824,16.38,17.47,27.26,0,110.7,13.26,17.19,271.2
"2009-05-06 01:01:00",861561,5.249,309,2.214,0.386,15.9,106.6633,16.33,17.45,27.43,0,110.7,13.26,17.14,271.0
"2009-05-06 01:01:30",861562,4.563,304.1,2.191,0.161,16.04,106.6532,16.31,17.45,27.51,0,110.7,13.26,17.12,266.1
"2009-05-06 01:02:00",861563,4.183,309.8,3.344,0.224,15.95,106.6532,16.31,17.43,27.46,0,110.7,13.27,17.12,271.8
"2009-05-06 01:02:30",861564,4.286,312.9,2.662,0.261,16.11,106.6526,16.3,17.39,27.37,0,110.6,13.27,17.11,274.9
"2009-05-06 01:03:00",861565,4.041,312.9,1.53,0.21,15.99,106.6402,16.27,17.39,27.31,0,110.6,13.27,17.08,274.9
"2009-05-06 01:03:30",861566,4.281,307.6,4.284,0.168,15.97,106.6232,16.23,17.36,27.38,0,110.6,13.27,17.04,269.6
"2009-05-06 01:04:00",861567,4.896,309.8,3.188,0.31,15.96,106.6212,16.22,17.34,27.57,0,110.6,13.27,17.03,271.8
"2009-05-06 01:04:30",861568,4.798,306.3,2.155,0.304,16.06,106.6284,16.24,17.34,27.61,0,110.6,13.27,17.05,268.3
"2009-05-06 01:05:00",861569,4.406,303.2,1.353,0.184,16.01,106.6278,16.24,17.33,27.57,0,110.6,13.27,17.05,265.2
"2009-05-06 01:05:30",861570,4.686,304.7,3.112,0.125,16,106.6113,16.2,17.32,27.71,0,110.6,13.27,17.01,266.7
"2009-05-06 01:06:00",861571,4.641,302.6,2.337,0.24,16,106.6096,16.19,17.29,27.76,0,110.6,13.27,17.00,264.6
"2009-05-06 01:06:30",861572,4.785,304.5,1.586,0.097,15.97,106.6126,16.2,17.27,27.81,0,110.6,13.27,17.01,266.5
"2009-05-06 01:07:00",861573,4.567,303.4,2.022,0.112,15.99,106.6143,16.21,17.27,27.85,0,110.6,13.27,17.02,265.4
"2009-05-06 01:07:30",861574,4.285,300.9,3.166,0.169,15.88,106.6089,16.19,17.26,27.97,0,110.6,13.27,17.00,262.9
"2009-05-06 01:08:00",861575,3.895,304.1,4.23,0.349,15.85,106.5909,16.15,17.23,28.17,0,110.6,13.27,16.96,266.1
"2009-05-06 01:08:30",861576,3.867,306,2.48,0.346,15.99,106.5878,16.14,17.21,28.14,0,110.6,13.27,16.95,268.0
"2009-05-06 01:09:00",861577,3.725,315.2,6.14,0.24,15.66,106.5878,16.14,17.21,28.28,0,110.6,13.27,16.95,277.2
"2009-05-06 01:09:30",861578,3.765,319.1,4.571,0.215,15.58,106.5819,16.12,17.18,28.72,0,110.6,13.27,16.93,281.1
"2009-05-06 01:10:00",861579,3.873,310.2,8.91,0.45,15.72,106.5605,16.07,17.18,28.73,0,110.6,13.27,16.88,272.2
"2009-05-06 01:10:30",861580,3.456,305,7.208,0.449,15.74,106.5541,16.05,17.16,28.6,0,110.6,13.27,16.86,267.0
"2009-05-06 01:11:00",861581,3.368,302.7,3.623,0.254,15.72,106.5541,16.05,17.13,28.6,0,110.6,13.27,16.86,264.7
"2009-05-06 01:11:30",861582,3.522,310.5,4.436,0.277,15.83,106.5501,16.04,17.13,28.5,0,110.6,13.27,16.85,272.5
"2009-05-06 01:12:00",861583,3.221,315.5,14.48,0.386,15.72,106.5352,16,17.1,28.29,0,110.6,13.27,16.81,277.5
"2009-05-06 01:12:30",861584,3.534,321.4,12.49,0.654,15.63,106.5214,15.97,17.08,28.66,0,110.6,13.27,16.78,283.4
"2009-05-06 01:13:00",861585,5.279,327.8,4.132,0.419,15.64,106.5203,15.97,17.08,28.8,0,110.6,13.27,16.77,289.8
"2009-05-06 01:13:30",861586,5.192,327.5,5.551,0.464,15.64,106.5203,15.97,17.04,28.96,0,110.6,13.27,16.77,289.5
"2009-05-06 01:14:00",861587,5.592,321.7,1.982,0.327,15.57,106.5169,15.96,17.04,28.9,0,110.6,13.27,16.76,283.7
"2009-05-06 01:14:30",861588,5.455,330.8,4.526,0.415,15.7,106.5073,15.93,17.02,29.08,0,110.6,13.27,16.74,292.8
"2009-05-06 01:15:00",861589,5.724,325.2,2.849,0.29,15.8,106.4893,15.89,17.01,28.85,0,110.6,13.28,16.69,287.2
"2009-05-06 01:15:30",861590,5.998,317.2,4.098,0.261,15.88,106.4865,15.88,17,28.78,0,110.6,13.28,16.69,279.2
"2009-05-06 01:16:00",861591,5.607,324.6,2.118,0.193,15.95,106.4865,15.88,16.98,28.6,0,110.6,13.28,16.69,286.6
"2009-05-06 01:16:30",861592,5.525,323.3,2.577,0.19,15.95,106.4865,15.88,16.97,28.54,0,110.6,13.28,16.69,285.3
"2009-05-06 01:17:00",861593,5.137,325.1,1.655,0.254,16.06,106.4868,15.88,16.97,28.47,0,110.6,13.28,16.69,287.1
"2009-05-06 01:17:30",861594,4.896,325.4,3.005,0.249,16,106.4851,15.88,16.97,28.48,0,110.6,13.28,16.68,287.4
"2009-05-06 01:18:00",861595,4.599,328.4,2.729,0.194,16,106.4828,15.87,16.95,28.5,0,110.5,13.28,16.68,290.4
"2009-05-06 01:18:30",861596,4.522,334.9,2.63,0.184,16.01,106.4777,15.86,16.92,28.52,0,110.6,13.28,16.66,296.9
"2009-05-06 01:19:00",861597,4.609,335.3,2.272,0.259,16.03,106.464,15.82,16.93,28.57,0,110.5,13.28,16.63,297.3
"2009-05-06 01:19:30",861598,4.602,335.5,4.694,0.145,16.12,106.4608,15.81,16.9,28.55,0,110.5,13.28,16.62,297.5
"2009-05-06 01:20:00",861599,4.521,331.6,2.304,0.145,16.01,106.4632,15.82,16.92,28.55,0,110.5,13.28,16.63,293.6
"2009-05-06 01:20:30",861600,4.367,331.9,3.321,0.146,15.92,106.465,15.82,16.9,28.63,0,110.5,13.28,16.63,293.9
"2009-05-06 01:21:00",861601,4.233,328.4,4.274,0.156,16.02,106.4647,15.82,16.89,28.63,0,110.5,13.28,16.63,290.4
"2009-05-06 01:21:30",861602,3.501,322.3,1.767,0.311,16.01,106.4737,15.85,16.88,28.58,0,110.5,13.28,16.65,284.3
"2009-05-06 01:22:00",861603,3.436,325.8,3.967,0.275,15.98,106.4765,15.85,16.89,28.6,0,110.5,13.28,16.66,287.8
"2009-05-06 01:22:30",861604,3.465,323.1,2.983,0.206,15.95,106.4771,15.86,16.87,28.74,0,110.5,13.28,16.66,285.1
"2009-05-06 01:23:00",861605,3.203,316.6,3.889,0.222,15.87,106.4745,15.85,16.88,28.84,0,110.5,13.28,16.66,278.6
"2009-05-06 01:23:30",861606,2.699,321.8,7.136,0.22,15.94,106.4625,15.82,16.86,28.78,0,110.5,13.29,16.62,283.8
"2009-05-06 01:24:00",861607,2.286,332.1,3.026,0.216,15.97,106.4554,15.8,16.85,28.74,0,110.5,13.29,16.61,294.1
"2009-05-06 01:24:30",861608,2.641,320.9,5.195,0.237,16.01,106.4549,15.8,16.85,28.73,0,110.5,13.29,16.61,282.9
"2009-05-06 01:25:00",861609,3.066,327.3,4.806,0.353,15.98,106.4549,15.8,16.84,28.72,0,110.5,13.29,16.61,289.3
"2009-05-06 01:25:30",861610,3.396,331,11.23,0.536,15.94,106.4549,15.8,16.82,28.76,0,110.5,13.29,16.61,293.0
"2009-05-06 01:26:00",861611,5.534,336.3,9.1,0.579,15.68,106.4549,15.8,16.82,29.35,0,110.5,13.29,16.61,298.3
"2009-05-06 01:26:30",861612,5.671,336.2,4.214,0.272,15.72,106.4549,15.8,16.81,29.51,0,110.5,13.28,16.61,298.2
"2009-05-06 01:27:00",861613,7.446,340.4,3.988,0.486,15.67,106.4549,15.8,16.81,29.8,0,110.5,13.28,16.61,302.4
"2009-05-06 01:27:30",861614,7.693,340,2.335,0.286,15.72,106.4501,15.79,16.79,29.91,0,110.5,13.28,16.59,302.0
"2009-05-06 01:28:00",861615,8.27,342.8,2.061,0.419,15.92,106.4445,15.77,16.8,29.74,0,110.5,13.28,16.58,304.8
"2009-05-06 01:28:30",861616,9.27,342.8,2.401,0.298,15.95,106.4284,15.73,16.77,29.52,0,110.5,13.28,16.54,304.8
"2009-05-06 01:29:00",861617,9.8,344.6,1.623,0.286,16.01,106.4211,15.71,16.78,29.49,0,110.5,13.28,16.52,306.6
"2009-05-06 01:29:30",861618,9.83,341,1.994,0.298,15.98,106.4211,15.71,16.76,29.43,0,110.5,13.28,16.52,303.0
"2009-05-06 01:30:00",861619,10.52,339.6,3.091,0.625,16.02,106.4211,15.71,16.75,29.29,0,110.5,13.28,16.52,301.6
"2009-05-06 01:30:30",861620,9.9,337.2,3.809,0.503,16,106.4211,15.71,16.75,28.61,0,110.5,13.28,16.52,299.2
"2009-05-06 01:31:00",861621,9.19,330.1,3.146,0.462,16.09,106.4211,15.71,16.73,28.92,0,110.5,13.28,16.52,292.1
"2009-05-06 01:31:30",861622,9.06,329.4,1.823,0.987,15.99,106.4202,15.71,16.72,28.43,0,110.5,13.29,16.52,291.4
"2009-05-06 01:32:00",861623,11.16,332,2.119,0.542,15.87,106.4194,15.71,16.74,27.52,0,110.5,13.29,16.51,294.0
"2009-05-06 01:32:30",861624,9.55,336.7,2.527,0.668,15.81,106.4191,15.71,16.71,27.24,0,110.5,13.3,16.51,298.7
"2009-05-06 01:33:00",861625,8.43,337.9,2.48,0.484,15.8,106.4197,15.71,16.72,27.38,0,110.5,13.3,16.51,299.9
"2009-05-06 01:33:30",861626,8.84,336.6,2.775,0.628,15.72,106.4211,15.71,16.72,27.5,0,110.5,13.3,16.52,298.6
"2009-05-06 01:34:00",861627,8.71,342.5,2.421,0.381,15.75,106.4211,15.71,16.71,27.72,0,110.5,13.3,16.52,304.5
"2009-05-06 01:34:30",861628,7.69,333.3,5.321,0.657,15.73,106.4211,15.71,16.72,27.69,0,110.5,13.3,16.52,295.3
"2009-05-06 01:35:00",861629,7.852,334.3,3.777,0.732,15.73,106.4211,15.71,16.72,27.56,0,110.5,13.3,16.52,296.3
"2009-05-06 01:35:30",861630,6.655,349.3,5.789,1.407,15.71,106.4211,15.71,16.73,27.82,0,110.5,13.3,16.52,311.3
"2009-05-06 01:36:00",861631,9.12,347.8,1.379,0.234,15.83,106.4211,15.71,16.74,27.98,0,110.5,13.3,16.52,309.8
"2009-05-06 01:36:30",861632,8.18,345.5,2.118,0.598,15.75,106.4211,15.71,16.74,27.95,0,110.5,13.3,16.52,307.5
"2009-05-06 01:37:00",861633,6.98,348.1,4.64,0.726,15.75,106.4225,15.72,16.73,28.12,0,110.5,13.3,16.52,310.1
"2009-05-06 01:37:30",861634,7.891,349.2,3.737,0.735,15.74,106.4284,15.73,16.75,27.92,0,110.5,13.3,16.54,311.2
"2009-05-06 01:38:00",861635,7.866,345.2,2.381,0.402,15.74,106.4383,15.76,16.75,27.92,0,110.5,13.3,16.56,307.2
"2009-05-06 01:38:30",861636,8.31,343.2,2.314,0.555,15.64,106.4436,15.77,16.75,27.77,0,110.5,13.3,16.58,305.2
"2009-05-06 01:39:00",861637,8.04,341.3,3.337,0.208,15.6,106.4462,15.78,16.76,27.8,0,110.5,13.3,16.58,303.3
"2009-05-06 01:39:30",861638,8.49,334.8,1.729,0.538,15.65,106.4467,15.78,16.77,28.13,0,110.5,13.3,16.58,296.8
"2009-05-06 01:40:00",861639,9.18,337.3,1.743,0.355,15.73,106.4473,15.78,16.77,27.71,0,110.5,13.3,16.59,299.3
"2009-05-06 01:40:30",861640,10.16,339.3,3.08,0.249,15.71,106.4465,15.78,16.78,27.14,0,110.5,13.3,16.58,301.3
"2009-05-06 01:41:00",861641,10.37,345.4,1.371,0.259,15.7,106.4465,15.78,16.77,27.53,0,110.5,13.3,16.58,307.4
"2009-05-06 01:41:30",861642,9.97,345.9,2.101,0.317,15.75,106.4447,15.77,16.78,27.71,0,110.5,13.3,16.58,307.9
"2009-05-06 01:42:00",861643,9.48,345.7,2.57,0.224,15.85,106.4271,15.73,16.78,26.97,0,110.5,13.3,16.53,307.7
"2009-05-06 01:42:30",861644,8.84,346.9,1.521,0.31,15.7,106.4253,15.72,16.77,27.87,0,110.5,13.3,16.53,308.9
"2009-05-06 01:43:00",861645,9.33,345.6,1.154,0.189,15.74,106.4277,15.73,16.78,28.04,0,110.5,13.29,16.54,307.6
"2009-05-06 01:43:30",861646,9.53,340,2.444,0.383,15.59,106.4295,15.73,16.78,27.84,0,110.5,13.29,16.54,302.0
"2009-05-06 01:44:00",861647,8.44,344.3,3.087,0.348,15.57,106.4301,15.73,16.76,27.99,0,110.5,13.29,16.54,306.3
"2009-05-06 01:44:30",861648,10.46,342,1.229,0.779,15.78,106.4287,15.73,16.75,27.51,0,110.5,13.29,16.54,304.0
"2009-05-06 01:45:00",861649,10.8,336,1.495,0.402,15.82,106.415,15.7,16.74,26.77,0,110.5,13.29,16.50,298.0
"2009-05-06 01:45:30",861650,11.33,335.7,1.744,0.273,15.79,106.3999,15.66,16.72,27.07,0,110.5,13.29,16.46,297.7
"2009-05-06 01:46:00",861651,10.67,331.7,2.578,0.417,15.7,106.4032,15.67,16.71,26.89,0,110.5,13.29,16.47,293.7
"2009-05-06 01:46:30",861652,9.87,336,3.784,0.878,15.68,106.4025,15.66,16.7,26.87,0,110.5,13.29,16.47,298.0
"2009-05-06 01:47:00",861653,10.31,337.5,5.177,1.252,15.6,106.3886,15.63,16.68,27.17,0,110.5,13.29,16.43,299.5
"2009-05-06 01:47:30",861654,10.66,333.9,3.525,1.088,15.61,106.3781,15.6,16.66,27.27,0,110.5,13.3,16.41,295.9
"2009-05-06 01:48:00",861655,10.02,337.2,3.134,0.565,15.57,106.38,15.61,16.64,27.59,0,110.5,13.3,16.41,299.2